Location: Nashville
(36.1660°N, 86.7840°W)
Time: 05:35:47
(UTC-05:00)

CUTE 1.7 + AOD 2 - Visible Passes

Search period start: 31 May 2023 00:00
Search period end: 10 June 2023 00:00
Orbit: 582 x 600 km, 97.7° (Epoch: 30 May)

Date Brightness Start Highest point End Pass type
(mag) Time Alt. Az. Time Alt. Az. Time Alt. Az.
31 May ? 04:21:33 10° NNE 04:25:42 89° ESE 04:29:48 10° SSW visible
01 Jun ? 04:29:55 10° N 04:34:02 72° WNW 04:38:08 10° SSW visible
02 Jun ? 04:38:19 10° N 04:42:22 55° WNW 04:46:24 10° SSW visible
03 Jun ? 03:13:16 10° ENE 03:14:57 12° E 03:16:38 10° ESE visible
03 Jun ? 04:46:46 10° N 04:50:41 43° WNW 04:54:36 10° SW visible
04 Jun ? 03:20:52 10° NE 03:23:22 15° E 03:25:50 10° SE visible
04 Jun ? 04:55:14 10° N 04:59:00 34° WNW 05:02:44 10° SW visible
05 Jun ? 03:28:46 10° NE 03:31:46 19° E 03:34:45 10° SE visible
06 Jun ? 03:36:45 10° NE 03:40:09 24° E 03:43:31 10° SSE visible
07 Jun ? 03:44:51 10° NE 03:48:31 30° E 03:52:10 10° SSE visible
08 Jun ? 03:53:00 10° NNE 03:56:52 38° E 04:00:43 10° SSE visible
09 Jun ? 04:01:12 10° NNE 04:05:13 49° E 04:09:12 10° S visible
